#timestamp,LO_Frequency,Hit,StdDev 
1609768815.6,286047000.9,N
1609768835.4,286046998.5,N
1609768855.2,286046999.8,N
1609768875.1,286047002.4,N
1609768876.0,286047002.4,N
1609768895.8,286047001.2,N
1609768915.7,286047000.8,N
1609768935.5,286046999.4,N
1609768955.3,286047001.0,N
1609768975.2,286046999.8,N
1609768995.9,286047001.0,N
1609769015.7,286046998.5,N
1609769035.6,286046999.2,N
1609769055.4,286046996.6,N
1609769075.2,286046998.0,N
1609769095.1,286046997.7,N
1609769096.0,286046997.7,N
1609769115.8,286046997.1,N
1609769135.7,286046996.9,N
1609769155.5,286046997.7,N
1609769175.3,286046997.7,N
1609769195.2,286046996.6,N
1609769215.0,286046996.8,N
1609769215.9,286046996.8,N
1609769235.8,286046995.6,N
1609769255.6,286046995.6,N
1609769275.4,286046998.0,N
1609769295.3,286046995.0,N
1609769315.1,286046997.2,N
1609769335.8,286046999.4,N
1609769355.7,286046999.3,N
1609769375.5,286046998.9,N
1609769395.4,286046998.6,N
1609769415.2,286046998.1,N
1609769435.0,286047001.1,N
1609769435.9,286047001.1,N
1609769455.8,286047001.1,N
1609769475.6,286047000.5,N
1609769495.5,286046998.4,N
1609769515.3,286046999.1,N
1609769535.1,286046996.9,N
1609769555.9,286046998.6,N
1609769575.7,286046999.0,N
1609769595.5,286046997.0,N
1609769615.4,286046997.0,N
1609769635.2,286046998.3,N
1609769655.1,286046997.0,N
1609769656.0,286046997.0,N
1609769675.8,286046998.8,N
1609769695.6,286046999.2,N
1609769715.5,286046998.6,N
1609769735.3,286046998.7,N
1609769755.1,286046999.1,N
1609769775.9,286046998.4,N
1609769795.7,286046996.5,N
1609769815.6,286046999.1,N
1609769835.4,286046997.0,N
1609769855.2,286046999.2,N
1609769875.1,286047001.0,N
1609769876.0,286047001.0,N
1609769895.8,286047000.3,N
1609769915.7,286047000.5,N
1609769935.5,286046998.5,N
1609769955.3,286046998.5,N
1609769975.2,286047001.2,N
1609769995.0,286046998.1,N
1609769995.9,286046998.1,N
1609770015.7,286047000.2,N
1609770035.6,286047000.0,N
1609770055.4,286047000.4,N
1609770075.3,286047000.1,N
1609770095.1,286046998.5,N
1609770115.8,286047000.9,N
1609770135.7,286047000.7,N
1609770155.5,286046998.1,N
1609770175.4,286047000.4,N
1609770195.2,286047000.4,N
1609770215.0,286046999.7,N
1609770215.9,286046999.7,N
1609770235.8,286046999.7,N
1609770255.6,286046999.7,N
1609770275.4,286047002.7,N
1609770295.3,286047002.7,N
1609770315.1,286047000.1,N
1609770335.9,286047002.6,N
1609770355.7,286046999.7,N
1609770375.5,286047000.1,N
1609770395.4,286047002.4,N
1609770415.2,286047002.1,N
1609770435.0,286047002.4,N
1609770435.9,286047002.4,N
1609770455.8,286047003.8,N
1609770475.6,286047000.2,N
1609770495.5,286047000.1,N
1609770515.3,286047000.4,N
1609770535.1,286046998.6,N
1609770555.9,286046998.3,N
1609770575.7,286047000.9,N
1609770595.5,286047000.4,N
1609770615.4,286046999.9,N
1609770635.2,286047000.1,N
1609770655.1,286046999.8,N
1609770656.0,286046999.8,N
1609770675.8,286047002.8,N
1609770695.6,286047000.0,N
1609770715.5,286047000.1,N
1609770735.3,286047001.0,N
1609770755.1,286046998.2,N
1609770775.9,286046998.2,N
1609770795.7,286047002.8,N
1609770815.6,286046998.3,N
1609770835.4,286047001.2,N
1609770855.2,286047001.0,N
1609770875.1,286046999.7,N
1609770876.0,286046999.7,N
1609770895.8,286047002.8,N
1609770915.7,286047000.0,N
1609770935.5,286046999.7,N
1609770955.3,286046999.9,N
1609770975.2,286047000.7,N
1609770995.0,286047000.8,N
1609770995.9,286047000.8,N
1609771015.7,286047001.2,N
1609771035.6,286046999.0,N
1609771055.4,286046999.1,N
1609771075.3,286046998.5,N
1609771095.1,286047001.2,N
1609771115.8,286046998.6,N
1609771135.7,286046999.2,N
1609771155.5,286046998.8,N
1609771175.4,286046998.8,N
1609771195.2,286046998.2,N
1609771215.0,286046999.5,N
1609771215.9,286046999.5,N
1609771235.8,286047000.7,N
1609771255.6,286046998.8,N
1609771275.5,286046998.7,N
1609771295.3,286046996.9,N
1609771315.1,286046999.5,N
1609771335.9,286046996.9,N
1609771355.7,286046996.6,N
1609771375.5,286046999.0,N
1609771395.4,286046999.4,N
1609771415.2,286046997.1,N
1609771435.1,286046998.0,N
1609771436.0,286046998.0,N
1609771455.8,286046997.7,N
1609771475.6,286046997.1,N
1609771525.5,286047001.0,E
1609771535.4,286046998.4,N
1609771555.3,286046999.0,P
1609771575.1,286046996.6,P
1609771595.8,286046999.5,N
1609771615.7,286046999.0,N
1609771635.5,286046999.6,N
1609771655.4,286046998.9,N
1609771675.2,286046998.4,N
1609771695.0,286046998.1,N
1609771695.9,286046998.1,N
1609771715.8,286046998.4,N
1609771735.6,286046998.7,N
1609771755.4,286046998.7,N
1609771775.3,286046999.3,N
1609771795.1,286046998.8,N
1609771815.9,286046998.4,N
1609771835.7,286046999.5,N
1609771855.5,286046998.7,N
1609771875.4,286046996.9,Y
1609771895.2,286046999.1,P
1609771915.1,286046996.8,P
1609771916.0,286046996.8,P
1609771935.8,286046996.8,Y
1609771955.6,286047000.9,P
1609771975.5,286047002.8,N
1609771995.3,286047000.8,N
1609772015.1,286046998.5,N
1609772035.9,286047000.6,N
1609772055.7,286047000.5,N
1609772075.6,286046999.8,N
1609772095.4,286047000.9,N
1609772115.2,286047001.6,N
1609772135.1,286047001.8,N
1609772136.0,286047001.8,N
1609772155.8,286047003.9,N
1609772175.6,286047001.7,N
1609772195.5,286047004.4,N
1609772215.3,286047004.2,N
1609772235.2,286047003.9,N
1609772255.9,286046999.7,N
1609772275.7,286047002.7,N
1609772295.6,286047003.8,N
1609772315.4,286047002.4,N
1609772335.2,286047001.0,N
1609772355.1,286047002.6,N
1609772356.0,286047002.6,N
1609772375.8,286047000.4,N
1609772395.7,286047004.4,N
